Location: Haliburton Scout Reserve
(45.0900°N, 78.3200°W)
Time: 04:15:53
(UTC-04:00)

PCSat - Pass Details

Date: 28 May 2022
Orbit: 784 x 795 km, 67.1° (Epoch: 24 June)

Event Time Altitude Azimuth Distance (km) Brightness Sun altitude
Rises 04:11:23 0° 310° (NW) 3,302 12.8 -11.7°
Reaches altitude 10° 04:15:12 10° 283° (WNW) 2,365 11.7 -11.3°
Maximum altitude 04:17:31 13° 258° (WSW) 2,166 11.3 -11.0°
Enters shadow 04:18:33 12° 245° (WSW) 2,205 11.3 -10.9°
